STARLINK-2741 (48684 NORAD) Tracking and Keplerian Element Data

This shows tracking and keplerian element data for the satellite.

Feedback or suggestion? Click here.




ElementValue
Catalog48684
NameSTARLINK-2741
Epoch Orbit1170
Epoch Day215.25002315
Epoch Year2021
RAAN84.3432
Inclination53.0468
Eccentricity0.0002156
Argument of Perigee30.7442
Mean Anonmoly140.6683
Mean Motion15.73218056
Decay Rate-8.118E-05
L11 48684U 21044AY 21215.25002315 -.00008118 00000-0 -53405-4 0 9991
L22 48684 53.0468 84.3432 0002156 30.7442 140.6683 15.73218056 11701

Live tracking and technical data element details for STARLINK-2741 (NORAD 48684). STARLINK-2741 can be tracked NOW for your location showing map with azimuth and elevation plus other details from your city location.

Track the satellite on the map from your city or location and see movement details for azimuth, elevation, latitude, longitude, range, height, and movement on the map or in text.







IsCatalogInMostPopularTable: catalog: 48684, numindb: 14
Update: records affected: 1



GetName: 48684 STARLINK-2741

Hit Count: updated at: Tue, 03 Aug 2021 22:40:07 GMT